Flag Weather past 2 weeks in Swakopmund, Namibia

Now
57 °F

Low clouds.


Feels Like: 55 °F
Forecast: 58 / 72 °F
Wind: 12 mph from Northeast

Location: Walvis Bay

Current Time: Nov 28, 2014 at 8:11:47 AM

Latest Report: Nov 28, 2014 at 7:00 AM


Visibility: N/A

Pressure: 29.95 "Hg

Humidity: 88%

Dew point: 54 °F

Location of SwakopmundLocation

Historic Weather in Swakopmund — Graph

°F

Swakopmund temperature yesterday

Maximum temperature yesterday: 75 °F (at 2:00 PM)
Minimum temperature yesterday: 52 °F (at 5:00 AM)
Average temperature yesterday: 63 °F

Past Weeks' High & Low Weather Summary

 TemperatureHumidityPressure
High88 °F (Nov 18, 2:00 PM)94% (Nov 14, 4:00 AM)30.09 "Hg (Nov 14, 4:00 AM)
Low50 °F (Nov 15, 5:00 AM)25% (Nov 18, 2:00 PM)29.83 "Hg (Nov 17, 6:00 PM)
Average63 °F70%29.97 "Hg
* Reported Nov 13 7:00 AM — Nov 28 7:00 AM, Swakopmund, Weather by CustomWeather, © 2014

Note: Actual official high and low records may vary slightly from our data, if they occured in-between our weather recording intervals... More about our weather records

Advertising

Swakopmund weather history for previous 24 hours

 ConditionsComfort  
Time TempWeatherWind HumidityBarometerVisibility
7:00 AM
Nov 28
57 °FLow clouds.12 mph88%29.95 "HgN/A
6:00 AM57 °FCool.12 mph88%29.95 "HgN/A
5:00 AM55 °FCool.13 mph88%29.95 "HgN/A
4:00 AM54 °FCool.7 mph88%29.92 "HgN/A
3:00 AM54 °FCool.6 mph88%29.92 "HgN/A
2:00 AM55 °FCool.3 mph82%29.89 "HgN/A
1:00 AM55 °FCool.5 mph88%29.92 "HgN/A
12:00 AM57 °FCool.2 mph82%29.92 "HgN/A
11:00 PM
Nov 27
57 °FCool.5 mph82%29.95 "HgN/A
10:00 PM59 °FCool.6 mph77%29.92 "HgN/A
9:00 PM63 °FMild.9 mph68%29.92 "HgN/A
8:00 PM64 °FClear.13 mph68%29.92 "Hg10 mi
7:00 PM70 °FMild.17 mph57%29.89 "HgN/A
6:00 PM72 °FMild.21 mph53%29.89 "HgN/A
5:00 PM75 °FSandstorm.20 mph47%29.86 "Hg3 mi
2:00 PM75 °FSunny.15 mph44%29.92 "Hg10 mi
1:00 PM73 °FSunny.13 mph47%29.95 "Hg10 mi
12:00 PM73 °FSunny.7 mph41%29.98 "Hg10 mi
Weather by CustomWeather, © 2014

See weather overviewHow to use our weather pages